| time (UTC) | temp F | wind direction | speed MPH | gust MPH | rain 1hr in | rain 24hr in | rain mn in | humidity % | barometer mb |
| 20260505003618 | 56 | 78 | 0.0 | 0.0 | 0.00 | 0.03 | 0.00 | 90 | 1009.5 |
| 20260505002616 | 56 | 78 | 0.0 | 0.0 | 0.00 | 0.03 | 0.00 | 90 | 1009.5 |
| 20260505002117 | 56 | 78 | 0.0 | 0.0 | 0.00 | 0.03 | 0.00 | 90 | 1009.5 |
| 20260505001616 | 56 | 78 | 0.0 | 0.0 | 0.00 | 0.03 | 0.00 | 90 | 1009.5 |
| 20260505001117 | 56 | 78 | 0.0 | 0.0 | 0.00 | 0.03 | 0.00 | 90 | 1009.4 |
| 20260505000617 | 56 | 78 | 0.0 | 0.0 | 0.00 | 0.03 | 0.00 | 90 | 1009.4 |
| 20260505000118 | 56 | 78 | 0.0 | 0.0 | 0.00 | 0.03 | 0.00 | 90 | 1009.3 |
| 20260504235616 | 56 | 76 | 0.0 | 0.0 | 0.00 | 0.03 | 0.00 | 90 | 1009.2 |
| 20260504235116 | 56 | 78 | 0.0 | 0.0 | 0.00 | 0.03 | 0.00 | 90 | 1009.2 |
| 20260504234116 | 56 | 78 | 0.0 | 0.0 | 0.00 | 0.03 | 0.00 | 90 | 1009.2 |
| 20260504233616 | 56 | 78 | 0.0 | 0.0 | 0.00 | 0.03 | 0.00 | 90 | 1009.2 |
| 20260504233117 | 56 | 78 | 1.0 | 2.0 | 0.00 | 0.03 | 0.00 | 90 | 1009.2 |
| 20260504231617 | 57 | 79 | 0.0 | 0.0 | 0.00 | 0.03 | 0.00 | 90 | 1009.5 |
| 20260504231117 | 57 | 79 | 0.0 | 0.0 | 0.00 | 0.03 | 0.00 | 90 | 1009.5 |
| 20260504230117 | 57 | 79 | 0.0 | 0.0 | 0.00 | 0.03 | 0.00 | 90 | 1009.8 |
| 20260504225616 | 57 | 79 | 0.0 | 0.0 | 0.00 | 0.03 | 0.00 | 90 | 1009.9 |
| 20260504225117 | 57 | 79 | 0.0 | 0.0 | 0.00 | 0.03 | 0.00 | 90 | 1010.0 |
| 20260504224617 | 57 | 79 | 0.0 | 0.0 | 0.00 | 0.03 | 0.00 | 90 | 1010.0 |
| 20260504224117 | 57 | 79 | 0.0 | 0.0 | 0.00 | 0.03 | 0.00 | 90 | 1010.0 |
| 20260504223617 | 57 | 79 | 0.0 | 0.0 | 0.00 | 0.03 | 0.00 | 90 | 1010.0 |
| 20260504223116 | 57 | 79 | 0.0 | 0.0 | 0.00 | 0.03 | 0.00 | 90 | 1010.0 |
| 20260504222617 | 57 | 79 | 0.0 | 0.0 | 0.00 | 0.03 | 0.00 | 90 | 1010.1 |
| 20260504222116 | 57 | 79 | 0.0 | 0.0 | 0.00 | 0.03 | 0.00 | 90 | 1010.1 |
| 20260504221616 | 58 | 76 | 0.0 | 0.0 | 0.00 | 0.03 | 0.00 | 90 | 1010.2 |
| 20260504221117 | 58 | 79 | 0.0 | 0.0 | 0.00 | 0.03 | 0.00 | 90 | 1010.3 |
| 20260504220616 | 58 | 79 | 0.0 | 0.0 | 0.00 | 0.03 | 0.00 | 90 | 1010.2 |
| 20260504220116 | 58 | 79 | 0.0 | 0.0 | 0.00 | 0.03 | 0.00 | 90 | 1010.3 |
| 20260504215617 | 58 | 78 | 0.0 | 0.0 | 0.00 | 0.03 | 0.03 | 90 | 1010.3 |
| 20260504215117 | 58 | 79 | 0.0 | 0.0 | 0.00 | 0.03 | 0.03 | 90 | 1010.4 |
| 20260504214116 | 58 | 78 | 0.0 | 0.0 | 0.00 | 0.03 | 0.03 | 89 | 1010.5 |
| 20260504213615 | 58 | 78 | 0.0 | 0.0 | 0.00 | 0.03 | 0.03 | 89 | 1010.5 |
| 20260504213115 | 58 | 79 | 0.0 | 0.0 | 0.00 | 0.03 | 0.03 | 89 | 1010.5 |
| 20260504212615 | 58 | 79 | 0.0 | 0.0 | 0.00 | 0.03 | 0.03 | 89 | 1010.6 |
| 20260504211615 | 58 | 78 | 0.0 | 0.0 | 0.00 | 0.03 | 0.03 | 89 | 1010.6 |
| 20260504210615 | 58 | 79 | 0.0 | 0.0 | 0.00 | 0.03 | 0.03 | 89 | 1010.6 |
| 20260504210115 | 58 | 79 | 0.0 | 0.0 | 0.00 | 0.03 | 0.03 | 89 | 1010.6 |
| 20260504205615 | 58 | 78 | 0.0 | 0.0 | 0.00 | 0.03 | 0.03 | 89 | 1010.7 |
| 20260504205115 | 58 | 79 | 0.0 | 0.0 | 0.00 | 0.03 | 0.03 | 89 | 1010.7 |
| 20260504204615 | 58 | 79 | 0.0 | 0.0 | 0.00 | 0.03 | 0.03 | 89 | 1010.7 |
| 20260504204116 | 58 | 78 | 0.0 | 0.0 | 0.00 | 0.03 | 0.03 | 88 | 1010.8 |
| 20260504203115 | 59 | 79 | 0.0 | 0.0 | 0.00 | 0.03 | 0.03 | 88 | 1010.8 |
| 20260504202115 | 59 | 79 | 0.0 | 0.0 | 0.00 | 0.03 | 0.03 | 89 | 1010.8 |
| 20260504201615 | 59 | 79 | 0.0 | 0.0 | 0.00 | 0.03 | 0.03 | 89 | 1010.8 |
| 20260504201115 | 59 | 78 | 0.0 | 0.0 | 0.00 | 0.03 | 0.03 | 89 | 1010.8 |
| 20260504200616 | 59 | 79 | 0.0 | 0.0 | 0.00 | 0.03 | 0.03 | 89 | 1010.8 |
| 20260504195615 | 59 | 79 | 0.0 | 0.0 | 0.00 | 0.03 | 0.03 | 89 | 1010.7 |
| 20260504195115 | 59 | 79 | 0.0 | 0.0 | 0.00 | 0.03 | 0.03 | 89 | 1010.6 |
| 20260504194615 | 59 | 78 | 0.0 | 0.0 | 0.00 | 0.03 | 0.03 | 89 | 1010.6 |
| 20260504194115 | 59 | 79 | 0.0 | 0.0 | 0.01 | 0.03 | 0.03 | 89 | 1010.7 |
| 20260504193616 | 59 | 79 | 0.0 | 0.0 | 0.01 | 0.03 | 0.03 | 89 | 1010.6 |
| 20260504193115 | 59 | 77 | 0.0 | 0.0 | 0.01 | 0.03 | 0.03 | 89 | 1010.4 |
| 20260504192616 | 59 | 79 | 0.0 | 0.0 | 0.01 | 0.03 | 0.03 | 89 | 1010.4 |
| 20260504192114 | 59 | 79 | 0.0 | 0.0 | 0.01 | 0.03 | 0.03 | 89 | 1010.4 |
| 20260504191616 | 59 | 78 | 0.0 | 0.0 | 0.01 | 0.03 | 0.03 | 88 | 1010.5 |
| 20260504191114 | 59 | 79 | 0.0 | 0.0 | 0.01 | 0.03 | 0.03 | 88 | 1010.5 |
| 20260504190615 | 59 | 79 | 0.0 | 0.0 | 0.01 | 0.03 | 0.03 | 88 | 1010.5 |
| 20260504190115 | 59 | 81 | 0.0 | 0.0 | 0.01 | 0.03 | 0.03 | 88 | 1010.5 |
| 20260504185615 | 60 | 82 | 0.0 | 0.0 | 0.01 | 0.03 | 0.03 | 88 | 1010.6 |
| 20260504185115 | 60 | 80 | 0.0 | 0.0 | 0.01 | 0.03 | 0.03 | 88 | 1010.5 |
| 20260504184614 | 60 | 82 | 0.0 | 0.0 | 0.01 | 0.03 | 0.03 | 87 | 1010.4 |
| 20260504184115 | 60 | 82 | 0.0 | 0.0 | 0.00 | 0.02 | 0.02 | 87 | 1010.4 |
| 20260504183615 | 60 | 83 | 0.0 | 0.0 | 0.00 | 0.02 | 0.02 | 87 | 1010.4 |
| 20260504183115 | 60 | 83 | 0.0 | 0.0 | 0.00 | 0.02 | 0.02 | 86 | 1010.4 |
| 20260504182115 | 61 | 84 | 0.0 | 2.0 | 0.00 | 0.02 | 0.02 | 85 | 1010.4 |
| 20260504181615 | 61 | 154 | 0.0 | 0.0 | 0.00 | 0.02 | 0.02 | 84 | 1010.4 |
| 20260504181116 | 61 | 164 | 0.0 | 0.0 | 0.00 | 0.02 | 0.02 | 83 | 1010.4 |
| 20260504180615 | 61 | 165 | 0.0 | 0.0 | 0.00 | 0.02 | 0.02 | 82 | 1010.4 |
| 20260504180115 | 62 | 167 | 0.0 | 0.0 | 0.00 | 0.02 | 0.02 | 82 | 1010.3 |
| 20260504175616 | 62 | 169 | 0.0 | 0.0 | 0.00 | 0.02 | 0.02 | 82 | 1010.3 |
| 20260504175115 | 62 | 169 | 0.0 | 0.0 | 0.00 | 0.02 | 0.02 | 82 | 1010.2 |
| 20260504174615 | 62 | 168 | 0.0 | 0.0 | 0.00 | 0.02 | 0.02 | 82 | 1010.2 |
| 20260504174115 | 62 | 166 | 0.0 | 0.0 | 0.00 | 0.02 | 0.02 | 80 | 1010.3 |
| 20260504173616 | 62 | 169 | 0.0 | 0.0 | 0.00 | 0.02 | 0.02 | 78 | 1010.2 |
| 20260504172614 | 63 | 170 | 0.0 | 0.0 | 0.00 | 0.02 | 0.02 | 74 | 1010.1 |
| 20260504172115 | 63 | 168 | 0.0 | 0.0 | 0.00 | 0.02 | 0.02 | 73 | 1010.1 |
| 20260504171614 | 63 | 171 | 0.0 | 0.0 | 0.00 | 0.02 | 0.02 | 72 | 1010.1 |
| 20260504171115 | 63 | 171 | 0.0 | 1.0 | 0.00 | 0.02 | 0.02 | 72 | 1010.1 |
| 20260504170615 | 64 | 170 | 0.0 | 0.0 | 0.00 | 0.02 | 0.02 | 72 | 1010.2 |
| 20260504170115 | 64 | 171 | 0.0 | 0.0 | 0.00 | 0.02 | 0.02 | 71 | 1010.1 |
| 20260504151116 | 65 | 201 | 0.0 | 0.0 | 0.00 | 0.02 | 0.02 | 72 | 1010.4 |
| 20260504150615 | 65 | 198 | 0.0 | 0.0 | 0.00 | 0.02 | 0.02 | 74 | 1010.5 |
| 20260504150115 | 65 | 194 | 0.0 | 0.0 | 0.00 | 0.02 | 0.02 | 72 | 1010.5 |
| 20260504141115 | 65 | 175 | 0.0 | 0.0 | 0.00 | 0.09 | 0.02 | 74 | 1010.7 |
| 20260504140616 | 65 | 153 | 0.0 | 3.0 | 0.00 | 0.18 | 0.02 | 75 | 1010.8 |
| 20260504140116 | 64 | 113 | 0.0 | 0.0 | 0.00 | 0.24 | 0.02 | 75 | 1010.9 |
| 20260504130615 | 62 | 109 | 0.0 | 0.0 | 0.00 | 0.24 | 0.02 | 82 | 1011.1 |
| 20260504120115 | 63 | 103 | 0.0 | 0.0 | 0.00 | 0.24 | 0.02 | 77 | 1011.4 |
| 20260504110616 | 61 | 128 | 0.0 | 0.0 | 0.01 | 0.24 | 0.02 | 85 | 1011.8 |
| 20260504110115 | 61 | 129 | 0.0 | 0.0 | 0.01 | 0.24 | 0.02 | 85 | 1011.8 |
| 20260504100615 | 60 | 135 | 0.0 | 0.0 | 0.01 | 0.23 | 0.02 | 89 | 1011.9 |
| 20260504100115 | 60 | 135 | 0.0 | 0.0 | 0.01 | 0.23 | 0.02 | 89 | 1011.9 |
| 20260504081115 | 59 | 139 | 0.0 | 0.0 | 0.00 | 0.22 | 0.01 | 89 | 1012.0 |
| 20260504080115 | 59 | 140 | 0.0 | 0.0 | 0.00 | 0.22 | 0.01 | 90 | 1011.9 |
| 20260504070116 | 58 | 139 | 0.0 | 0.0 | 0.01 | 0.23 | 0.01 | 90 | 1011.5 |
| 20260504060116 | 57 | 139 | 0.0 | 0.0 | 0.00 | 0.24 | 0.00 | 90 | 1011.1 |
| 20260504050615 | 57 | 168 | 0.0 | 0.0 | 0.00 | 0.31 | 0.00 | 90 | 1010.8 |
| 20260504050116 | 57 | 170 | 0.0 | 0.0 | 0.00 | 0.31 | 0.00 | 90 | 1010.8 |
| 20260504045615 | 56 | 169 | 0.0 | 0.0 | 0.00 | 0.31 | 0.00 | 90 | 1010.8 |
| 20260504045116 | 56 | 169 | 0.0 | 0.0 | 0.00 | 0.32 | 0.00 | 90 | 1010.7 |
| 20260504044115 | 56 | 170 | 0.0 | 0.0 | 0.00 | 0.33 | 0.00 | 90 | 1010.7 |
| 20260504043117 | 56 | 168 | 0.0 | 0.0 | 0.00 | 0.34 | 0.00 | 90 | 1010.5 |
| 20260504042615 | 56 | 170 | 0.0 | 0.0 | 0.00 | 0.34 | 0.00 | 90 | 1010.6 |
| 20260504042115 | 56 | 170 | 0.0 | 0.0 | 0.00 | 0.34 | 0.00 | 90 | 1010.6 |
| 20260504041615 | 56 | 170 | 0.0 | 0.0 | 0.00 | 0.34 | 0.00 | 89 | 1010.6 |
| 20260504041115 | 56 | 170 | 0.0 | 0.0 | 0.00 | 0.34 | 0.00 | 90 | 1010.7 |
| 20260504040116 | 56 | 169 | 0.0 | 0.0 | 0.00 | 0.34 | 0.00 | 90 | 1010.9 |
| 20260504035615 | 56 | 170 | 0.0 | 0.0 | 0.00 | 0.34 | 0.00 | 89 | 1010.8 |
| 20260504035116 | 56 | 170 | 0.0 | 0.0 | 0.00 | 0.34 | 0.00 | 89 | 1010.8 |
| 20260504034615 | 56 | 170 | 0.0 | 0.0 | 0.00 | 0.34 | 0.00 | 89 | 1010.9 |
| 20260504034115 | 56 | 169 | 0.0 | 0.0 | 0.00 | 0.34 | 0.00 | 89 | 1010.9 |
| 20260504033615 | 56 | 169 | 0.0 | 0.0 | 0.00 | 0.34 | 0.00 | 89 | 1010.9 |
| 20260504033116 | 56 | 170 | 0.0 | 0.0 | 0.00 | 0.34 | 0.00 | 89 | 1011.0 |
| 20260504032616 | 56 | 169 | 0.0 | 0.0 | 0.00 | 0.34 | 0.00 | 89 | 1011.1 |
| 20260504032115 | 56 | 169 | 0.0 | 0.0 | 0.00 | 0.34 | 0.00 | 89 | 1011.1 |
| 20260504031616 | 56 | 170 | 0.0 | 0.0 | 0.00 | 0.34 | 0.00 | 89 | 1011.1 |
| 20260504031116 | 56 | 170 | 0.0 | 0.0 | 0.00 | 0.34 | 0.00 | 89 | 1011.1 |
| 20260504025615 | 56 | 170 | 0.0 | 0.0 | 0.00 | 0.34 | 0.00 | 89 | 1011.1 |
| 20260504024615 | 56 | 169 | 0.0 | 0.0 | 0.00 | 0.34 | 0.00 | 89 | 1011.0 |
| 20260504024116 | 56 | 170 | 0.0 | 0.0 | 0.00 | 0.34 | 0.00 | 89 | 1011.1 |
| 20260504023615 | 56 | 170 | 0.0 | 0.0 | 0.00 | 0.34 | 0.00 | 89 | 1011.0 |
| 20260504023116 | 56 | 169 | 0.0 | 0.0 | 0.00 | 0.34 | 0.00 | 89 | 1011.0 |
| 20260504022615 | 56 | 169 | 0.0 | 0.0 | 0.00 | 0.34 | 0.00 | 89 | 1011.0 |
| 20260504022117 | 56 | 170 | 0.0 | 0.0 | 0.00 | 0.34 | 0.00 | 88 | 1011.0 |
| 20260504021615 | 56 | 170 | 0.0 | 0.0 | 0.00 | 0.34 | 0.00 | 88 | 1011.1 |
| 20260504021115 | 56 | 170 | 0.0 | 0.0 | 0.00 | 0.34 | 0.00 | 88 | 1011.1 |
| 20260504020615 | 57 | 170 | 0.0 | 0.0 | 0.00 | 0.34 | 0.00 | 88 | 1011.0 |
| 20260504020115 | 57 | 170 | 0.0 | 0.0 | 0.00 | 0.34 | 0.00 | 88 | 1011.0 |
| 20260504015616 | 57 | 169 | 0.0 | 0.0 | 0.00 | 0.34 | 0.00 | 89 | 1011.0 |
| 20260504015115 | 57 | 169 | 0.0 | 0.0 | 0.00 | 0.34 | 0.00 | 89 | 1011.0 |
| 20260504014615 | 57 | 170 | 0.0 | 0.0 | 0.00 | 0.34 | 0.00 | 88 | 1011.0 |
| 20260504014116 | 57 | 170 | 0.0 | 0.0 | 0.00 | 0.34 | 0.00 | 88 | 1011.0 |
| 20260504013615 | 57 | 168 | 0.0 | 0.0 | 0.00 | 0.34 | 0.00 | 88 | 1011.0 |
| 20260504013116 | 57 | 169 | 0.0 | 0.0 | 0.00 | 0.34 | 0.00 | 88 | 1011.0 |
| 20260504012615 | 57 | 170 | 0.0 | 0.0 | 0.00 | 0.34 | 0.00 | 88 | 1011.0 |
| 20260504012115 | 57 | 169 | 0.0 | 0.0 | 0.00 | 0.34 | 0.00 | 88 | 1011.0 |
| 20260504011115 | 57 | 170 | 0.0 | 0.0 | 0.00 | 0.34 | 0.00 | 88 | 1011.1 |
| 20260504010616 | 57 | 170 | 0.0 | 3.0 | 0.00 | 0.34 | 0.00 | 88 | 1011.1 |
| 20260504010116 | 57 | 169 | 0.0 | 3.0 | 0.00 | 0.34 | 0.00 | 88 | 1011.1 |
| 20260504005616 | 57 | 168 | 1.0 | 6.0 | 0.00 | 0.34 | 0.00 | 88 | 1011.1 |
| 20260504005115 | 57 | 183 | 2.0 | 5.0 | 0.00 | 0.34 | 0.00 | 88 | 1011.2 |
| 20260504004615 | 57 | 183 | 1.0 | 5.0 | 0.00 | 0.34 | 0.00 | 88 | 1011.2 |
| 20260504004115 | 57 | 186 | 1.0 | 5.0 | 0.00 | 0.34 | 0.00 | 88 | 1011.2 |